Home   Weather   Kuujjuaq   Past weeks

Flag for Canada Past Weather in Kuujjuaq, Quebec, Canada — Yesterday and Last 2 Weeks

Now
45 °F

Passing clouds.


Feels Like: 40 °F
Forecast: 35 / 49 °F
Wind: 8 mph from West

Location: Kuujjuaq

Current Time: Sep 29, 2016 at 8:00:48 PM

Latest Report: Sep 29, 2016 at 7:00 PM


Visibility: 15 mi

Pressure: 30.34 "Hg

Humidity: 76%

Dew Point: 37 °F

Location of KuujjuaqLocation

Past Weather in Kuujjuaq — Graph

°F

Kuujjuaq Temperature Yesterday

Maximum temperature yesterday: 57 °F (at 1:00 PM)
Minimum temperature yesterday: 32 °F (at 5:00 AM)
Average temperature yesterday: 44 °F

High & Low Weather Summary for the Past Weeks

 TemperatureHumidityPressure
High57 °F (Sep 20, 1:00 PM)100% (Sep 16, 6:00 AM)30.34 "Hg (Sep 16, 6:00 AM)
Low23 °F (Sep 19, 3:00 AM)33% (Sep 19, 3:00 PM)29.34 "Hg (Sep 16, 1:00 PM)
Average42 °F80%29.98 "Hg
* Reported Sep 14 7:00 PM — Sep 29 7:00 PM, Kuujjuaq, Weather by CustomWeather, © 2016

Note: Actual official high and low records may vary slightly from our data, if they occured in-between our weather recording intervals... More about our weather records

Advertising

Kuujjuaq Weather History for the Previous 24 Hours

Scroll right to see more
 ConditionsComfort  
Time TempWeatherWind HumidityBarometerVisibility
7:00 PM
Thu, Sep 29
45 °FPassing clouds.8 mph76%30.34 "Hg15 mi
6:00 PM48 °FPassing clouds.7 mph66%30.33 "Hg15 mi
5:00 PM52 °FScattered clouds.8 mph58%30.32 "Hg15 mi
4:00 PM52 °FScattered clouds.14 mph62%30.31 "Hg15 mi
3:00 PM52 °FPartly sunny.14 mph67%30.30 "Hg15 mi
2:00 PM52 °FMostly cloudy.16 mph72%30.27 "Hg15 mi
1:00 PM52 °FLight rain. Mostly cloudy.12 mph77%30.26 "Hg15 mi
12:00 PM48 °FMostly cloudy.10 mph82%30.25 "Hg15 mi
11:00 AM48 °FMostly cloudy.13 mph76%30.24 "Hg15 mi
10:00 AM46 °FPartly sunny.12 mph71%30.25 "Hg15 mi
9:00 AM43 °FPartly sunny.9 mph71%30.25 "Hg15 mi
8:00 AM41 °FPartly sunny.9 mph70%30.25 "Hg15 mi
7:00 AM39 °FPartly sunny.9 mph70%30.24 "Hg15 mi
6:00 AM37 °FPassing clouds.8 mph70%30.25 "Hg15 mi
5:00 AM36 °FPassing clouds.8 mph81%30.25 "Hg15 mi
4:00 AM36 °FPassing clouds.7 mph81%30.26 "Hg15 mi
3:00 AM37 °FPassing clouds.5 mph87%30.26 "Hg15 mi
2:00 AM39 °FClear.5 mph81%30.27 "Hg15 mi
1:00 AM37 °FClear.8 mph87%30.27 "Hg15 mi
12:00 AM39 °FPassing clouds.8 mph81%30.28 "Hg15 mi
11:00 PM
Wed, Sep 28
41 °FPassing clouds.8 mph70%30.29 "Hg15 mi
10:00 PM39 °FPassing clouds.7 mph70%30.29 "Hg15 mi
9:00 PM41 °FPassing clouds.7 mph66%30.29 "Hg15 mi
8:00 PM45 °FPassing clouds.7 mph57%30.29 "Hg15 mi
Weather by CustomWeather, © 2016

See weather overviewHow to use our weather pages